Time,TemperatureF,DewpointF,PressureIn,WindDirection,WindDirectionDegrees,WindSpeedMPH,WindSpeedGustMPH,Humidity,HourlyPrecipIn,Conditions,Clouds,dailyrainin,SoftwareType,DateUTC
2013-01-12 00:03:00,42.1,40.0,30.01,SW,225,1.8,1.8,92,0.02,,,0.00,WUHU216HW,2013-01-12 05:03:00,
2013-01-12 00:08:00,42.3,40.1,30.00,SW,225,1.8,2.5,92,0.02,,,0.00,WUHU216HW,2013-01-12 05:08:00,
2013-01-12 00:13:00,42.5,40.6,30.00,South,180,1.8,2.5,93,0.02,,,0.00,WUHU216HW,2013-01-12 05:13:00,
2013-01-12 00:18:00,42.5,40.6,30.00,SE,135,2.2,2.2,93,0.03,,,0.01,WUHU216HW,2013-01-12 05:18:00,
2013-01-12 00:23:00,42.3,40.4,30.00,WSW,248,0.9,2.2,93,0.04,,,0.01,WUHU216HW,2013-01-12 05:23:00,
2013-01-12 00:28:00,42.1,40.2,30.00,SSE,158,1.1,1.8,93,0.04,,,0.01,WUHU216HW,2013-01-12 05:28:00,
2013-01-12 00:33:00,41.8,39.9,30.00,South,180,0.7,1.3,93,0.04,,,0.01,WUHU216HW,2013-01-12 05:33:00,
2013-01-12 00:38:00,41.4,39.5,30.00,SSW,203,0.7,1.6,93,0.04,,,0.01,WUHU216HW,2013-01-12 05:38:00,
2013-01-12 00:43:00,41.0,39.2,30.00,SSE,158,0.9,1.6,93,0.03,,,0.01,WUHU216HW,2013-01-12 05:43:00,
2013-01-12 00:48:00,41.2,39.3,30.00,SSW,203,1.3,1.8,93,0.03,,,0.01,WUHU216HW,2013-01-12 05:48:00,
2013-01-12 00:53:00,41.2,39.3,30.00,SSW,203,1.1,1.8,93,0.02,,,0.01,WUHU216HW,2013-01-12 05:53:00,
2013-01-12 00:58:00,40.9,39.0,30.00,South,180,1.6,1.6,93,0.02,,,0.01,WUHU216HW,2013-01-12 05:58:00,
2013-01-12 01:03:00,40.5,38.6,30.00,SSW,203,0.9,1.6,93,0.02,,,0.01,WUHU216HW,2013-01-12 06:03:00,
2013-01-12 01:08:00,40.3,38.4,30.00,SSW,203,1.3,2.2,93,0.02,,,0.01,WUHU216HW,2013-01-12 06:08:00,
2013-01-12 01:13:00,40.3,38.4,30.00,SSW,203,1.3,2.2,93,0.01,,,0.01,WUHU216HW,2013-01-12 06:13:00,
2013-01-12 01:18:00,40.0,38.1,30.00,SSW,203,1.3,2.2,93,0.01,,,0.01,WUHU216HW,2013-01-12 06:18:00,
2013-01-12 01:23:00,40.0,38.1,30.00,SSW,203,1.8,2.2,93,0.00,,,0.01,WUHU216HW,2013-01-12 06:23:00,
2013-01-12 01:28:00,40.3,38.4,30.00,SSW,203,2.2,2.2,93,0.00,,,0.01,WUHU216HW,2013-01-12 06:28:00,
2013-01-12 01:33:00,40.1,38.3,30.00,SSW,203,2.2,2.2,93,0.00,,,0.01,WUHU216HW,2013-01-12 06:33:00,
2013-01-12 01:38:00,40.1,38.3,30.01,SW,225,2.7,2.7,93,0.00,,,0.01,WUHU216HW,2013-01-12 06:38:00,
2013-01-12 01:43:00,40.0,38.3,30.00,SW,225,2.0,2.7,94,0.00,,,0.01,WUHU216HW,2013-01-12 06:43:00,
2013-01-12 01:48:00,40.1,38.5,30.00,SW,225,2.2,2.2,94,0.00,,,0.01,WUHU216HW,2013-01-12 06:48:00,
2013-01-12 01:53:00,40.0,38.1,30.00,SSW,203,1.8,2.2,93,0.00,,,0.01,WUHU216HW,2013-01-12 06:53:00,
2013-01-12 01:58:00,40.0,38.1,30.01,SW,225,1.6,2.2,93,0.00,,,0.01,WUHU216HW,2013-01-12 06:58:00,
2013-01-12 02:03:00,40.0,38.1,30.01,SSW,203,1.8,2.5,93,0.00,,,0.01,WUHU216HW,2013-01-12 07:03:00,
2013-01-12 02:08:00,40.0,38.1,30.01,South,180,1.8,2.5,93,0.01,,,0.03,WUHU216HW,2013-01-12 07:08:00,
2013-01-12 02:13:00,39.8,38.2,30.01,SSW,203,1.6,2.5,94,0.01,,,0.03,WUHU216HW,2013-01-12 07:13:00,
2013-01-12 02:18:00,39.8,37.9,30.00,South,180,2.2,2.5,93,0.01,,,0.03,WUHU216HW,2013-01-12 07:18:00,
2013-01-12 02:23:00,39.8,37.9,30.00,SSW,203,1.8,2.2,93,0.01,,,0.03,WUHU216HW,2013-01-12 07:23:00,
2013-01-12 02:28:00,39.8,37.9,30.00,SSW,203,1.1,1.8,93,0.01,,,0.03,WUHU216HW,2013-01-12 07:28:00,
2013-01-12 02:33:00,39.6,37.7,30.00,SSW,203,1.8,1.8,93,0.01,,,0.03,WUHU216HW,2013-01-12 07:33:00,
2013-01-12 02:38:00,39.6,37.7,30.00,SSW,203,1.1,1.8,93,0.01,,,0.03,WUHU216HW,2013-01-12 07:38:00,
2013-01-12 02:43:00,39.4,37.5,30.00,South,180,0.4,2.0,93,0.01,,,0.03,WUHU216HW,2013-01-12 07:43:00,
2013-01-12 02:48:00,39.4,37.5,30.00,SSW,203,1.8,2.0,93,0.01,,,0.03,WUHU216HW,2013-01-12 07:48:00,
2013-01-12 02:53:00,39.4,37.5,30.00,SSW,203,4.0,4.0,93,0.01,,,0.03,WUHU216HW,2013-01-12 07:53:00,
2013-01-12 02:58:00,39.4,37.5,30.00,SW,225,1.3,4.0,93,0.01,,,0.03,WUHU216HW,2013-01-12 07:58:00,
2013-01-12 03:03:00,39.2,37.4,30.01,SSW,203,1.6,2.2,93,0.01,,,0.03,WUHU216HW,2013-01-12 08:03:00,
2013-01-12 03:08:00,39.2,37.4,30.01,SSW,203,1.1,2.0,93,0.00,,,0.03,WUHU216HW,2013-01-12 08:08:00,
2013-01-12 03:13:00,39.2,37.4,30.01,SSW,203,1.1,2.2,93,0.00,,,0.03,WUHU216HW,2013-01-12 08:13:00,
2013-01-12 03:18:00,39.2,37.4,30.01,SSW,203,1.1,2.2,93,0.00,,,0.03,WUHU216HW,2013-01-12 08:18:00,
2013-01-12 03:23:00,39.2,37.4,30.01,SSW,203,1.1,2.0,93,0.00,,,0.03,WUHU216HW,2013-01-12 08:23:00,
2013-01-12 03:28:00,39.2,37.4,30.01,SSW,203,1.1,1.3,93,0.00,,,0.03,WUHU216HW,2013-01-12 08:28:00,
2013-01-12 03:33:00,39.1,37.2,30.01,SSW,203,1.1,1.8,93,0.00,,,0.03,WUHU216HW,2013-01-12 08:33:00,
2013-01-12 03:38:00,39.1,37.2,30.00,SW,225,1.3,1.8,93,0.00,,,0.03,WUHU216HW,2013-01-12 08:38:00,
2013-01-12 03:43:00,39.1,37.2,30.00,SSW,203,0.9,1.8,93,0.00,,,0.03,WUHU216HW,2013-01-12 08:43:00,
2013-01-12 03:48:00,39.2,37.4,30.00,SW,225,2.5,2.5,93,0.00,,,0.03,WUHU216HW,2013-01-12 08:48:00,
2013-01-12 03:53:00,39.1,37.2,29.99,SSW,203,1.6,2.5,93,0.00,,,0.03,WUHU216HW,2013-01-12 08:53:00,
2013-01-12 03:58:00,39.1,37.2,29.99,SW,225,1.8,2.2,93,0.00,,,0.03,WUHU216HW,2013-01-12 08:58:00,
2013-01-12 04:03:00,39.1,37.2,29.99,SW,225,1.6,2.2,93,0.00,,,0.03,WUHU216HW,2013-01-12 09:03:00,
2013-01-12 04:08:00,39.1,37.2,29.99,South,180,1.3,2.2,93,0.00,,,0.03,WUHU216HW,2013-01-12 09:08:00,
2013-01-12 04:13:00,38.9,37.0,29.99,SSW,203,2.5,2.5,93,0.00,,,0.03,WUHU216HW,2013-01-12 09:13:00,
2013-01-12 04:18:00,38.9,37.0,30.00,SSW,203,1.3,2.5,93,0.00,,,0.03,WUHU216HW,2013-01-12 09:18:00,
2013-01-12 04:24:00,38.9,37.0,30.00,WSW,248,1.3,2.2,93,0.00,,,0.03,WUHU216HW,2013-01-12 09:24:00,
2013-01-12 04:29:00,38.7,36.8,29.99,SSW,203,2.5,2.5,93,0.00,,,0.03,WUHU216HW,2013-01-12 09:29:00,
2013-01-12 04:34:00,38.9,37.0,29.98,SW,225,1.3,2.5,93,0.00,,,0.03,WUHU216HW,2013-01-12 09:34:00,
2013-01-12 04:39:00,38.9,37.0,29.97,SW,225,1.8,2.2,93,0.00,,,0.03,WUHU216HW,2013-01-12 09:39:00,
2013-01-12 04:44:00,38.9,37.0,29.98,SSW,203,1.1,2.2,93,0.00,,,0.03,WUHU216HW,2013-01-12 09:44:00,
2013-01-12 04:49:00,39.1,37.2,29.99,South,180,0.4,2.2,93,0.00,,,0.03,WUHU216HW,2013-01-12 09:49:00,
2013-01-12 04:54:00,38.9,37.0,29.99,SSW,203,1.1,1.8,93,0.00,,,0.03,WUHU216HW,2013-01-12 09:54:00,
2013-01-12 04:59:00,38.5,36.6,29.99,SSW,203,1.1,1.3,93,0.00,,,0.03,WUHU216HW,2013-01-12 09:59:00,
2013-01-12 05:04:00,38.5,36.6,29.99,SSW,203,1.1,1.3,93,0.00,,,0.03,WUHU216HW,2013-01-12 10:04:00,
2013-01-12 05:09:00,38.5,36.6,29.99,South,180,0.9,1.3,93,0.00,,,0.03,WUHU216HW,2013-01-12 10:09:00,
2013-01-12 05:14:00,38.7,36.8,29.99,SSW,203,0.7,1.3,93,0.00,,,0.03,WUHU216HW,2013-01-12 10:14:00,
2013-01-12 05:19:00,38.9,37.0,29.99,SSW,203,1.8,1.8,93,0.00,,,0.03,WUHU216HW,2013-01-12 10:19:00,
2013-01-12 05:24:00,38.9,37.0,29.99,SSW,203,1.1,1.8,93,0.00,,,0.03,WUHU216HW,2013-01-12 10:24:00,
2013-01-12 05:29:00,38.7,36.8,29.99,SW,225,1.6,2.5,93,0.00,,,0.03,WUHU216HW,2013-01-12 10:29:00,
2013-01-12 05:34:00,38.5,36.6,29.99,SSE,158,0.9,2.5,93,0.00,,,0.03,WUHU216HW,2013-01-12 10:34:00,
2013-01-12 05:39:00,38.9,37.0,29.99,SSW,203,0.9,1.8,93,0.00,,,0.03,WUHU216HW,2013-01-12 10:39:00,
2013-01-12 05:44:00,38.9,37.0,29.99,SSW,203,1.3,1.8,93,0.00,,,0.03,WUHU216HW,2013-01-12 10:44:00,
2013-01-12 05:49:00,38.9,37.0,29.99,SW,225,1.8,1.8,93,0.00,,,0.03,WUHU216HW,2013-01-12 10:49:00,
2013-01-12 05:54:00,38.9,37.0,29.99,SSW,203,1.3,1.8,93,0.00,,,0.03,WUHU216HW,2013-01-12 10:54:00,
2013-01-12 05:59:00,38.9,37.0,30.00,SSW,203,0.7,1.8,93,0.00,,,0.03,WUHU216HW,2013-01-12 10:59:00,
2013-01-12 06:04:00,38.9,37.0,30.01,SSW,203,0.7,1.3,93,0.00,,,0.03,WUHU216HW,2013-01-12 11:04:00,
2013-01-12 06:09:00,38.7,36.8,30.01,SSW,203,0.9,1.3,93,0.00,,,0.03,WUHU216HW,2013-01-12 11:09:00,
2013-01-12 06:14:00,38.5,36.6,30.01,SSW,203,1.1,2.0,93,0.00,,,0.03,WUHU216HW,2013-01-12 11:14:00,
2013-01-12 06:19:00,38.5,36.6,30.01,South,180,0.7,2.0,93,0.00,,,0.03,WUHU216HW,2013-01-12 11:19:00,
2013-01-12 06:24:00,38.9,37.0,30.01,SSE,158,1.3,1.3,93,0.00,,,0.03,WUHU216HW,2013-01-12 11:24:00,
2013-01-12 06:29:00,39.1,37.2,30.02,SSW,203,1.8,2.5,93,0.00,,,0.03,WUHU216HW,2013-01-12 11:29:00,
2013-01-12 06:34:00,39.1,37.2,30.02,SSW,203,1.1,2.5,93,0.00,,,0.03,WUHU216HW,2013-01-12 11:34:00,
2013-01-12 06:39:00,38.9,37.0,30.02,South,180,0.9,1.3,93,0.00,,,0.03,WUHU216HW,2013-01-12 11:39:00,
2013-01-12 06:44:00,39.1,37.2,30.02,SSE,158,0.4,1.8,93,0.00,,,0.03,WUHU216HW,2013-01-12 11:44:00,
2013-01-12 06:49:00,39.2,37.4,30.02,SSE,158,0.7,1.8,93,0.00,,,0.03,WUHU216HW,2013-01-12 11:49:00,
2013-01-12 06:54:00,39.1,37.2,30.03,SSE,158,0.7,0.9,93,0.00,,,0.03,WUHU216HW,2013-01-12 11:54:00,
2013-01-12 06:59:00,38.9,37.0,30.03,South,180,0.2,0.9,93,0.00,,,0.03,WUHU216HW,2013-01-12 11:59:00,
2013-01-12 07:04:00,39.2,37.4,30.03,SW,225,1.1,2.7,93,0.00,,,0.03,WUHU216HW,2013-01-12 12:04:00,
2013-01-12 07:09:00,39.2,37.4,30.02,SSW,203,1.8,2.7,93,0.00,,,0.03,WUHU216HW,2013-01-12 12:09:00,
2013-01-12 07:14:00,39.2,37.4,30.03,SSE,158,0.7,1.8,93,0.00,,,0.03,WUHU216HW,2013-01-12 12:14:00,
2013-01-12 07:19:00,39.2,37.4,30.03,SSW,203,0.4,1.1,93,0.00,,,0.03,WUHU216HW,2013-01-12 12:19:00,
2013-01-12 07:24:00,39.1,37.2,30.03,SSW,203,1.6,2.0,93,0.00,,,0.03,WUHU216HW,2013-01-12 12:24:00,
2013-01-12 07:29:00,39.2,37.4,30.03,SSW,203,1.6,2.0,93,0.00,,,0.03,WUHU216HW,2013-01-12 12:29:00,
2013-01-12 07:34:00,39.2,37.4,30.02,SW,225,2.0,2.5,93,0.00,,,0.03,WUHU216HW,2013-01-12 12:34:00,
2013-01-12 07:39:00,39.2,37.6,30.02,South,180,1.8,2.5,94,0.00,,,0.03,WUHU216HW,2013-01-12 12:39:00,
2013-01-12 07:44:00,39.4,37.8,30.03,SSW,203,1.6,2.0,94,0.00,,,0.03,WUHU216HW,2013-01-12 12:44:00,
2013-01-12 07:49:00,39.4,37.8,30.03,SW,225,1.8,2.0,94,0.00,,,0.03,WUHU216HW,2013-01-12 12:49:00,
2013-01-12 07:54:00,39.4,37.8,30.02,SSW,203,2.5,2.5,94,0.00,,,0.03,WUHU216HW,2013-01-12 12:54:00,
2013-01-12 07:59:00,39.4,37.8,30.03,SSW,203,1.8,2.5,94,0.00,,,0.03,WUHU216HW,2013-01-12 12:59:00,
2013-01-12 08:04:00,39.6,38.0,30.03,SSW,203,1.3,2.0,94,0.00,,,0.03,WUHU216HW,2013-01-12 13:04:00,
2013-01-12 08:09:00,39.6,38.0,30.04,SW,225,1.8,2.0,94,0.00,,,0.03,WUHU216HW,2013-01-12 13:09:00,
2013-01-12 08:14:00,39.6,38.0,30.04,SSW,203,1.1,2.0,94,0.00,,,0.03,WUHU216HW,2013-01-12 13:14:00,
2013-01-12 08:19:00,39.6,38.0,30.04,SW,225,1.1,2.9,94,0.00,,,0.03,WUHU216HW,2013-01-12 13:19:00,
2013-01-12 08:24:00,39.8,38.2,30.04,SSW,203,1.1,2.9,94,0.00,,,0.03,WUHU216HW,2013-01-12 13:24:00,
2013-01-12 08:29:00,40.0,38.3,30.04,SSW,203,0.7,1.6,94,0.00,,,0.03,WUHU216HW,2013-01-12 13:29:00,
2013-01-12 08:34:00,40.0,38.3,30.04,South,180,0.9,1.6,94,0.00,,,0.03,WUHU216HW,2013-01-12 13:34:00,
2013-01-12 08:39:00,40.1,38.3,30.05,South,180,1.1,1.3,93,0.00,,,0.03,WUHU216HW,2013-01-12 13:39:00,
2013-01-12 08:44:00,40.3,38.7,30.05,ESE,113,0.0,1.3,94,0.00,,,0.03,WUHU216HW,2013-01-12 13:44:00,
2013-01-12 08:49:00,40.5,38.9,30.05,SE,135,0.4,1.1,94,0.00,,,0.03,WUHU216HW,2013-01-12 13:49:00,
2013-01-12 08:54:00,40.7,39.1,30.05,South,180,0.9,0.9,94,0.00,,,0.03,WUHU216HW,2013-01-12 13:54:00,
2013-01-12 08:59:00,40.7,39.1,30.04,SSW,203,0.7,1.1,94,0.00,,,0.03,WUHU216HW,2013-01-12 13:59:00,
2013-01-12 09:04:00,40.7,39.1,30.04,SSW,203,0.4,1.8,94,0.00,,,0.03,WUHU216HW,2013-01-12 14:04:00,
2013-01-12 09:09:00,40.7,39.1,30.04,SW,225,1.1,1.8,94,0.00,,,0.03,WUHU216HW,2013-01-12 14:09:00,
2013-01-12 09:14:00,40.7,39.1,30.04,SW,225,1.8,1.8,94,0.00,,,0.03,WUHU216HW,2013-01-12 14:14:00,
2013-01-12 09:19:00,40.7,39.1,30.05,South,180,0.7,1.8,94,0.00,,,0.03,WUHU216HW,2013-01-12 14:19:00,
2013-01-12 09:24:00,40.7,39.1,30.05,SSW,203,0.9,1.8,94,0.00,,,0.03,WUHU216HW,2013-01-12 14:24:00,
2013-01-12 09:30:00,40.7,39.1,30.06,SSW,203,0.2,1.3,94,0.00,,,0.03,WUHU216HW,2013-01-12 14:30:00,
2013-01-12 09:35:00,40.7,39.1,30.04,SW,225,1.6,2.5,94,0.00,,,0.03,WUHU216HW,2013-01-12 14:35:00,
2013-01-12 09:40:00,41.0,39.4,30.04,SW,225,2.2,2.5,94,0.00,,,0.03,WUHU216HW,2013-01-12 14:40:00,
2013-01-12 09:45:00,41.0,39.4,30.05,SW,225,1.3,2.2,94,0.00,,,0.03,WUHU216HW,2013-01-12 14:45:00,
2013-01-12 09:50:00,41.0,39.7,30.04,SW,225,1.8,2.2,95,0.00,,,0.03,WUHU216HW,2013-01-12 14:50:00,
2013-01-12 09:55:00,41.2,39.9,30.05,SW,225,1.8,2.2,95,0.00,,,0.03,WUHU216HW,2013-01-12 14:55:00,
2013-01-12 10:00:00,41.4,40.1,30.04,SSW,203,1.8,2.5,95,0.00,,,0.03,WUHU216HW,2013-01-12 15:00:00,
2013-01-12 10:05:00,41.2,39.9,30.04,SW,225,1.3,2.9,95,0.00,,,0.03,WUHU216HW,2013-01-12 15:05:00,
2013-01-12 10:10:00,41.6,40.2,30.04,SW,225,2.5,2.9,95,0.00,,,0.03,WUHU216HW,2013-01-12 15:10:00,
2013-01-12 10:15:00,41.6,40.2,30.05,SW,225,2.7,2.7,95,0.00,,,0.03,WUHU216HW,2013-01-12 15:15:00,
2013-01-12 10:20:00,41.6,40.2,30.04,SSW,203,1.1,2.7,95,0.00,,,0.03,WUHU216HW,2013-01-12 15:20:00,
2013-01-12 10:25:00,41.8,40.4,30.05,SSW,203,1.8,2.2,95,0.00,,,0.03,WUHU216HW,2013-01-12 15:25:00,
2013-01-12 10:30:00,41.8,40.4,30.05,SW,225,1.1,2.2,95,0.00,,,0.03,WUHU216HW,2013-01-12 15:30:00,
2013-01-12 10:35:00,41.8,40.4,30.05,SSW,203,0.4,2.5,95,0.00,,,0.03,WUHU216HW,2013-01-12 15:35:00,
2013-01-12 10:40:00,41.8,40.1,30.05,SSW,203,0.7,2.5,94,0.00,,,0.03,WUHU216HW,2013-01-12 15:40:00,
2013-01-12 10:45:00,41.9,40.3,30.04,SSW,203,0.7,1.8,94,0.00,,,0.03,WUHU216HW,2013-01-12 15:45:00,
2013-01-12 10:50:00,42.1,40.5,30.04,SSE,158,0.9,1.8,94,0.00,,,0.03,WUHU216HW,2013-01-12 15:50:00,
2013-01-12 10:55:00,42.3,40.7,30.04,SSE,158,1.1,2.2,94,0.00,,,0.03,WUHU216HW,2013-01-12 15:55:00,
2013-01-12 11:00:00,42.3,40.7,30.04,South,180,0.9,2.2,94,0.00,,,0.03,WUHU216HW,2013-01-12 16:00:00,
2013-01-12 11:05:00,42.7,41.0,30.04,SSW,203,1.1,1.3,94,0.00,,,0.03,WUHU216HW,2013-01-12 16:05:00,
2013-01-12 11:10:00,42.7,41.0,30.03,SW,225,2.0,2.0,94,0.00,,,0.03,WUHU216HW,2013-01-12 16:10:00,
2013-01-12 11:15:00,42.7,41.0,30.03,SE,135,0.4,2.5,94,0.00,,,0.03,WUHU216HW,2013-01-12 16:15:00,
2013-01-12 11:20:00,42.8,41.2,30.03,South,180,0.0,2.5,94,0.00,,,0.03,WUHU216HW,2013-01-12 16:20:00,
2013-01-12 11:25:00,43.2,41.6,30.03,SW,225,0.0,1.3,94,0.00,,,0.03,WUHU216HW,2013-01-12 16:25:00,
2013-01-12 11:30:00,43.6,41.9,30.03,SW,225,0.0,0.4,94,0.00,,,0.03,WUHU216HW,2013-01-12 16:30:00,
2013-01-12 11:35:00,43.6,41.9,30.02,SW,225,1.1,1.1,94,0.00,,,0.03,WUHU216HW,2013-01-12 16:35:00,
2013-01-12 11:40:00,43.6,41.9,30.02,SW,225,0.0,1.1,94,0.00,,,0.03,WUHU216HW,2013-01-12 16:40:00,
2013-01-12 11:45:00,43.7,42.1,30.02,South,180,0.0,1.1,94,0.00,,,0.03,WUHU216HW,2013-01-12 16:45:00,
2013-01-12 11:50:00,43.9,42.3,30.03,South,180,0.0,1.1,94,0.00,,,0.03,WUHU216HW,2013-01-12 16:50:00,
2013-01-12 11:55:00,44.3,42.7,30.03,South,180,0.0,0.4,94,0.00,,,0.03,WUHU216HW,2013-01-12 16:55:00,
2013-01-12 12:00:00,44.5,42.8,30.02,South,180,0.9,0.9,94,0.00,,,0.03,WUHU216HW,2013-01-12 17:00:00,
2013-01-12 12:05:00,44.5,42.8,30.02,South,180,0.0,0.9,94,0.00,,,0.03,WUHU216HW,2013-01-12 17:05:00,
2013-01-12 12:10:00,45.0,43.4,30.03,South,180,0.4,1.3,94,0.00,,,0.03,WUHU216HW,2013-01-12 17:10:00,
2013-01-12 12:15:00,45.4,43.7,30.03,South,180,0.4,1.3,94,0.00,,,0.03,WUHU216HW,2013-01-12 17:15:00,
2013-01-12 12:20:00,45.4,43.7,30.03,South,180,0.0,0.4,94,0.00,,,0.03,WUHU216HW,2013-01-12 17:20:00,
2013-01-12 12:25:00,45.5,43.9,30.03,South,180,0.4,0.4,94,0.00,,,0.03,WUHU216HW,2013-01-12 17:25:00,
2013-01-12 12:30:00,45.4,43.7,30.02,South,180,0.4,0.4,94,0.00,,,0.03,WUHU216HW,2013-01-12 17:30:00,
2013-01-12 12:35:00,45.4,43.7,30.02,South,180,0.0,0.4,94,0.00,,,0.03,WUHU216HW,2013-01-12 17:35:00,
2013-01-12 12:40:00,45.7,44.1,30.02,North,0,1.1,1.1,94,0.00,,,0.03,WUHU216HW,2013-01-12 17:40:00,
2013-01-12 12:45:00,45.7,44.1,30.02,NNE,23,0.7,1.1,94,0.00,,,0.03,WUHU216HW,2013-01-12 17:45:00,
2013-01-12 12:50:00,45.7,44.1,30.03,NNE,23,0.9,1.1,94,0.00,,,0.03,WUHU216HW,2013-01-12 17:50:00,
2013-01-12 12:55:00,45.9,44.3,30.03,NNE,23,0.0,0.9,94,0.00,,,0.03,WUHU216HW,2013-01-12 17:55:00,
2013-01-12 13:00:00,46.1,44.5,30.03,NNE,23,0.0,0.7,94,0.00,,,0.03,WUHU216HW,2013-01-12 18:00:00,
2013-01-12 13:05:00,46.3,44.6,30.03,NNE,23,0.7,0.7,94,0.00,,,0.03,WUHU216HW,2013-01-12 18:05:00,
2013-01-12 13:10:00,46.4,44.8,30.03,NNE,23,0.2,1.1,94,0.00,,,0.03,WUHU216HW,2013-01-12 18:10:00,
2013-01-12 13:15:00,46.6,45.0,30.03,NNW,338,0.0,1.1,94,0.00,,,0.03,WUHU216HW,2013-01-12 18:15:00,
2013-01-12 13:20:00,46.6,45.0,30.04,NNW,338,0.7,1.1,94,0.00,,,0.03,WUHU216HW,2013-01-12 18:20:00,
2013-01-12 13:25:00,46.6,45.0,30.04,NNW,338,0.0,0.7,94,0.00,,,0.03,WUHU216HW,2013-01-12 18:25:00,
2013-01-12 13:30:00,46.6,45.0,30.04,NNW,338,0.0,0.7,94,0.00,,,0.03,WUHU216HW,2013-01-12 18:30:00,
2013-01-12 13:35:00,46.6,45.0,30.04,NNW,338,0.4,0.4,94,0.00,,,0.03,WUHU216HW,2013-01-12 18:35:00,
2013-01-12 13:40:00,46.6,45.0,30.04,NNW,338,0.2,0.7,94,0.00,,,0.03,WUHU216HW,2013-01-12 18:40:00,
2013-01-12 13:45:00,46.8,45.2,30.04,NNW,338,0.4,0.9,94,0.00,,,0.03,WUHU216HW,2013-01-12 18:45:00,
2013-01-12 13:50:00,47.2,45.8,30.04,North,0,0.4,0.9,95,0.00,,,0.03,WUHU216HW,2013-01-12 18:50:00,
2013-01-12 13:55:00,47.2,45.8,30.04,North,0,0.4,1.1,95,0.00,,,0.03,WUHU216HW,2013-01-12 18:55:00,
2013-01-12 14:00:00,47.0,45.4,30.04,NNE,23,1.6,1.6,94,0.00,,,0.03,WUHU216HW,2013-01-12 19:00:00,
2013-01-12 14:05:00,47.0,45.6,30.04,North,0,0.9,1.6,95,0.00,,,0.03,WUHU216HW,2013-01-12 19:05:00,
2013-01-12 14:10:00,46.8,45.5,30.04,North,0,0.7,1.1,95,0.00,,,0.03,WUHU216HW,2013-01-12 19:10:00,
2013-01-12 14:15:00,46.8,45.2,30.04,North,0,0.4,0.7,94,0.00,,,0.03,WUHU216HW,2013-01-12 19:15:00,
2013-01-12 14:20:00,46.6,45.0,30.04,North,0,0.0,0.4,94,0.00,,,0.03,WUHU216HW,2013-01-12 19:20:00,
2013-01-12 14:25:00,46.4,44.8,30.04,North,0,0.0,0.4,94,0.00,,,0.03,WUHU216HW,2013-01-12 19:25:00,
2013-01-12 14:30:00,46.6,45.0,30.04,North,0,0.4,0.4,94,0.00,,,0.03,WUHU216HW,2013-01-12 19:30:00,
2013-01-12 14:35:00,46.6,45.0,30.04,North,0,0.4,0.7,94,0.00,,,0.03,WUHU216HW,2013-01-12 19:35:00,
2013-01-12 14:40:00,46.6,45.0,30.04,NNW,338,1.1,1.1,94,0.00,,,0.03,WUHU216HW,2013-01-12 19:40:00,
2013-01-12 14:45:00,46.4,44.8,30.03,SW,225,0.0,2.2,94,0.00,,,0.03,WUHU216HW,2013-01-12 19:45:00,
2013-01-12 14:50:00,45.9,44.3,30.03,SW,225,0.0,2.2,94,0.00,,,0.03,WUHU216HW,2013-01-12 19:50:00,
2013-01-12 14:55:00,46.1,44.5,30.03,SW,225,0.0,0.4,94,0.00,,,0.03,WUHU216HW,2013-01-12 19:55:00,
2013-01-12 15:01:00,46.1,44.5,30.03,West,270,0.4,0.7,94,0.00,,,0.03,WUHU216HW,2013-01-12 20:01:00,
2013-01-12 15:06:00,46.3,44.6,30.04,West,270,0.0,0.7,94,0.00,,,0.03,WUHU216HW,2013-01-12 20:06:00,
2013-01-12 15:11:00,46.1,44.5,30.04,NNE,23,0.4,1.3,94,0.00,,,0.03,WUHU216HW,2013-01-12 20:11:00,
2013-01-12 15:16:00,46.1,44.5,30.04,North,0,0.7,1.3,94,0.00,,,0.03,WUHU216HW,2013-01-12 20:16:00,
2013-01-12 15:21:00,45.7,43.8,30.04,SW,225,1.8,1.8,93,0.00,,,0.03,WUHU216HW,2013-01-12 20:21:00,
2013-01-12 15:26:00,45.5,43.7,30.04,SW,225,0.0,1.8,93,0.00,,,0.03,WUHU216HW,2013-01-12 20:26:00,
2013-01-12 15:31:00,45.5,43.7,30.04,SW,225,0.4,0.4,93,0.00,,,0.03,WUHU216HW,2013-01-12 20:31:00,
2013-01-12 15:36:00,45.4,43.5,30.04,NNW,338,0.7,0.9,93,0.00,,,0.03,WUHU216HW,2013-01-12 20:36:00,
2013-01-12 15:41:00,45.4,43.5,30.04,North,0,0.4,0.9,93,0.00,,,0.03,WUHU216HW,2013-01-12 20:41:00,
2013-01-12 15:46:00,45.4,43.5,30.04,North,0,0.4,0.9,93,0.00,,,0.03,WUHU216HW,2013-01-12 20:46:00,
2013-01-12 15:51:00,45.2,43.3,30.04,NNE,23,1.1,1.1,93,0.00,,,0.03,WUHU216HW,2013-01-12 20:51:00,
2013-01-12 15:56:00,45.0,43.1,30.04,NNE,23,0.4,1.1,93,0.00,,,0.03,WUHU216HW,2013-01-12 20:56:00,
2013-01-12 16:01:00,45.0,43.1,30.04,West,270,0.9,1.1,93,0.00,,,0.03,WUHU216HW,2013-01-12 21:01:00,
2013-01-12 16:06:00,44.5,42.6,30.04,WSW,248,1.1,1.3,93,0.00,,,0.03,WUHU216HW,2013-01-12 21:06:00,
2013-01-12 16:11:00,44.3,42.4,30.03,NW,315,0.9,1.3,93,0.00,,,0.03,WUHU216HW,2013-01-12 21:11:00,
2013-01-12 16:16:00,44.1,42.2,30.04,WSW,248,0.2,1.1,93,0.00,,,0.03,WUHU216HW,2013-01-12 21:16:00,
2013-01-12 16:21:00,44.1,42.2,30.04,WSW,248,0.0,0.4,93,0.00,,,0.03,WUHU216HW,2013-01-12 21:21:00,
2013-01-12 16:26:00,43.9,42.0,30.04,WSW,248,0.2,0.4,93,0.00,,,0.03,WUHU216HW,2013-01-12 21:26:00,
2013-01-12 16:31:00,43.9,42.0,30.04,WSW,248,1.6,1.6,93,0.01,,,0.03,WUHU216HW,2013-01-12 21:31:00,
2013-01-12 16:36:00,43.6,41.7,30.04,SW,225,0.4,1.8,93,0.01,,,0.03,WUHU216HW,2013-01-12 21:36:00,
2013-01-12 16:41:00,43.6,41.7,30.05,SW,225,0.0,1.8,93,0.01,,,0.03,WUHU216HW,2013-01-12 21:41:00,
2013-01-12 16:46:00,43.6,41.7,30.04,NNW,338,0.4,0.4,93,0.01,,,0.03,WUHU216HW,2013-01-12 21:46:00,
2013-01-12 16:51:00,43.4,41.5,30.05,NNW,338,0.0,1.1,93,0.01,,,0.03,WUHU216HW,2013-01-12 21:51:00,
2013-01-12 16:56:00,43.4,41.5,30.04,WSW,248,0.0,1.1,93,0.01,,,0.03,WUHU216HW,2013-01-12 21:56:00,
2013-01-12 17:01:00,43.2,41.3,30.05,SSW,203,0.4,0.4,93,0.01,,,0.03,WUHU216HW,2013-01-12 22:01:00,
2013-01-12 17:06:00,43.0,41.1,30.06,SSW,203,0.2,0.4,93,0.01,,,0.03,WUHU216HW,2013-01-12 22:06:00,
2013-01-12 17:11:00,43.0,41.1,30.06,SSW,203,0.0,0.4,93,0.01,,,0.03,WUHU216HW,2013-01-12 22:11:00,
2013-01-12 17:16:00,43.0,41.1,30.06,SSW,203,0.0,0.4,93,0.01,,,0.03,WUHU216HW,2013-01-12 22:16:00,
2013-01-12 17:21:00,42.8,41.0,30.07,SSW,203,0.0,0.4,93,0.01,,,0.03,WUHU216HW,2013-01-12 22:21:00,
2013-01-12 17:26:00,42.8,41.0,30.07,SSW,203,0.0,0.4,93,0.00,,,0.03,WUHU216HW,2013-01-12 22:26:00,
2013-01-12 17:31:00,42.8,41.0,30.07,SSW,203,0.0,0.4,93,0.00,,,0.03,WUHU216HW,2013-01-12 22:31:00,
2013-01-12 17:36:00,42.8,41.0,30.07,SSW,203,0.0,0.4,93,0.00,,,0.03,WUHU216HW,2013-01-12 22:36:00,
2013-01-12 17:41:00,42.8,41.0,30.07,SSW,203,0.0,0.4,93,0.00,,,0.03,WUHU216HW,2013-01-12 22:41:00,
2013-01-12 17:46:00,42.7,40.8,30.07,SSW,203,0.0,0.4,93,0.00,,,0.03,WUHU216HW,2013-01-12 22:46:00,
2013-01-12 17:51:00,42.7,40.8,30.07,SSW,203,0.2,0.4,93,0.00,,,0.03,WUHU216HW,2013-01-12 22:51:00,
2013-01-12 17:56:00,42.7,40.8,30.07,SSW,203,0.0,0.4,93,0.00,,,0.03,WUHU216HW,2013-01-12 22:56:00,
2013-01-12 18:01:00,42.7,40.8,30.07,SSW,203,0.0,0.2,93,0.00,,,0.03,WUHU216HW,2013-01-12 23:01:00,
2013-01-12 18:06:00,42.5,40.6,30.07,SSW,203,0.0,0.0,93,0.00,,,0.03,WUHU216HW,2013-01-12 23:06:00,
2013-01-12 18:11:00,42.3,40.4,30.06,SSW,203,0.0,0.0,93,0.00,,,0.03,WUHU216HW,2013-01-12 23:11:00,
2013-01-12 18:16:00,42.3,40.4,30.06,SSW,203,0.4,0.4,93,0.00,,,0.03,WUHU216HW,2013-01-12 23:16:00,
2013-01-12 18:21:00,42.3,40.4,30.05,SSW,203,0.0,0.7,93,0.00,,,0.03,WUHU216HW,2013-01-12 23:21:00,
2013-01-12 18:27:00,42.1,40.2,30.06,SSW,203,0.0,0.7,93,0.00,,,0.03,WUHU216HW,2013-01-12 23:27:00,
2013-01-12 18:32:00,42.1,40.2,30.05,NNW,338,0.0,0.7,93,0.00,,,0.03,WUHU216HW,2013-01-12 23:32:00,
2013-01-12 18:37:00,42.1,40.2,30.05,West,270,1.6,1.6,93,0.00,,,0.03,WUHU216HW,2013-01-12 23:37:00,
2013-01-12 18:42:00,42.1,40.2,30.04,NNW,338,0.9,1.6,93,0.00,,,0.03,WUHU216HW,2013-01-12 23:42:00,
2013-01-12 18:47:00,42.1,40.2,30.04,North,0,1.8,1.8,93,0.00,,,0.03,WUHU216HW,2013-01-12 23:47:00,
2013-01-12 18:52:00,42.1,40.2,30.04,North,0,0.4,1.8,93,0.00,,,0.03,WUHU216HW,2013-01-12 23:52:00,
2013-01-12 18:57:00,42.1,40.2,30.05,NE,45,0.0,1.1,93,0.00,,,0.03,WUHU216HW,2013-01-12 23:57:00,
2013-01-12 19:02:00,42.1,40.2,30.04,NW,315,0.2,1.1,93,0.00,,,0.03,WUHU216HW,2013-01-13 00:02:00,
2013-01-12 19:07:00,42.1,40.2,30.04,North,0,1.3,1.6,93,0.00,,,0.03,WUHU216HW,2013-01-13 00:07:00,
2013-01-12 19:12:00,42.1,40.2,30.03,North,0,0.4,1.6,93,0.00,,,0.03,WUHU216HW,2013-01-13 00:12:00,
2013-01-12 19:17:00,42.1,40.2,30.04,NNE,23,0.4,0.9,93,0.00,,,0.03,WUHU216HW,2013-01-13 00:17:00,
2013-01-12 19:22:00,42.1,40.2,30.04,NNE,23,0.7,1.1,93,0.00,,,0.03,WUHU216HW,2013-01-13 00:22:00,
2013-01-12 19:27:00,42.1,40.2,30.04,NNE,23,0.9,1.1,93,0.00,,,0.03,WUHU216HW,2013-01-13 00:27:00,
2013-01-12 19:32:00,42.1,40.2,30.04,NNE,23,0.2,1.1,93,0.00,,,0.03,WUHU216HW,2013-01-13 00:32:00,
2013-01-12 19:37:00,42.1,40.2,30.04,NNE,23,0.0,1.1,93,0.00,,,0.03,WUHU216HW,2013-01-13 00:37:00,
2013-01-12 19:42:00,42.1,40.2,30.04,NNE,23,0.0,0.4,93,0.00,,,0.03,WUHU216HW,2013-01-13 00:42:00,
2013-01-12 19:47:00,41.9,40.1,30.05,NNE,23,0.7,0.7,93,0.00,,,0.03,WUHU216HW,2013-01-13 00:47:00,
2013-01-12 19:52:00,41.9,40.1,30.05,NNE,23,0.2,0.9,93,0.00,,,0.03,WUHU216HW,2013-01-13 00:52:00,
2013-01-12 19:57:00,41.9,40.1,30.05,North,0,0.4,1.1,93,0.00,,,0.03,WUHU216HW,2013-01-13 00:57:00,
2013-01-12 20:02:00,41.9,40.1,30.04,North,0,0.4,1.1,93,0.00,,,0.03,WUHU216HW,2013-01-13 01:02:00,
2013-01-12 20:07:00,41.9,40.1,30.05,North,0,0.4,1.1,93,0.00,,,0.03,WUHU216HW,2013-01-13 01:07:00,
2013-01-12 20:12:00,41.9,40.1,30.05,North,0,0.7,0.9,93,0.00,,,0.03,WUHU216HW,2013-01-13 01:12:00,
2013-01-12 20:17:00,41.9,40.1,30.05,North,0,0.0,0.9,93,0.00,,,0.03,WUHU216HW,2013-01-13 01:17:00,
2013-01-12 20:22:00,41.9,40.1,30.05,North,0,0.0,0.4,93,0.00,,,0.03,WUHU216HW,2013-01-13 01:22:00,
2013-01-12 20:27:00,41.9,40.1,30.04,North,0,0.0,0.2,93,0.00,,,0.03,WUHU216HW,2013-01-13 01:27:00,
2013-01-12 20:32:00,41.8,39.9,30.04,North,0,0.4,0.4,93,0.00,,,0.03,WUHU216HW,2013-01-13 01:32:00,
2013-01-12 20:37:00,41.8,39.9,30.04,North,0,0.4,0.4,93,0.00,,,0.03,WUHU216HW,2013-01-13 01:37:00,
2013-01-12 20:42:00,41.8,39.9,30.04,North,0,0.4,0.9,93,0.00,,,0.03,WUHU216HW,2013-01-13 01:42:00,
2013-01-12 20:47:00,41.8,39.9,30.04,North,0,0.4,0.9,93,0.00,,,0.03,WUHU216HW,2013-01-13 01:47:00,
2013-01-12 20:52:00,41.6,39.7,30.04,NNE,23,1.1,1.1,93,0.00,,,0.03,WUHU216HW,2013-01-13 01:52:00,
2013-01-12 20:57:00,41.6,39.7,30.04,North,0,0.0,1.1,93,0.00,,,0.03,WUHU216HW,2013-01-13 01:57:00,
2013-01-12 21:02:00,41.6,39.7,30.04,North,0,0.0,0.7,93,0.00,,,0.03,WUHU216HW,2013-01-13 02:02:00,
2013-01-12 21:07:00,41.6,39.7,30.04,NNE,23,0.2,0.9,93,0.00,,,0.03,WUHU216HW,2013-01-13 02:07:00,
2013-01-12 21:12:00,41.6,39.7,30.04,NNE,23,0.4,0.9,93,0.00,,,0.03,WUHU216HW,2013-01-13 02:12:00,
2013-01-12 21:17:00,41.6,39.7,30.04,NNE,23,0.4,0.4,93,0.00,,,0.03,WUHU216HW,2013-01-13 02:17:00,
2013-01-12 21:22:00,41.4,39.5,30.04,NNE,23,0.0,0.4,93,0.00,,,0.03,WUHU216HW,2013-01-13 02:22:00,
2013-01-12 21:27:00,41.4,39.5,30.04,NNE,23,0.0,0.4,93,0.00,,,0.03,WUHU216HW,2013-01-13 02:27:00,
2013-01-12 21:32:00,41.4,39.5,30.03,North,0,0.0,0.4,93,0.00,,,0.03,WUHU216HW,2013-01-13 02:32:00,
2013-01-12 21:37:00,41.4,39.5,30.03,NNE,23,0.4,0.4,93,0.00,,,0.03,WUHU216HW,2013-01-13 02:37:00,
2013-01-12 21:42:00,41.4,39.5,30.03,NNE,23,0.4,0.9,93,0.00,,,0.03,WUHU216HW,2013-01-13 02:42:00,
2013-01-12 21:47:00,41.4,39.5,30.03,NNE,23,0.0,0.9,93,0.00,,,0.03,WUHU216HW,2013-01-13 02:47:00,
2013-01-12 21:52:00,41.4,39.5,30.03,NNE,23,0.0,0.2,93,0.00,,,0.03,WUHU216HW,2013-01-13 02:52:00,
2013-01-12 21:57:00,41.2,39.3,30.02,North,0,0.0,0.0,93,0.00,,,0.03,WUHU216HW,2013-01-13 02:57:00,
2013-01-12 22:03:00,41.2,39.3,30.02,North,0,0.0,0.0,93,0.00,,,0.03,WUHU216HW,2013-01-13 03:03:00,
2013-01-12 22:08:00,41.0,39.4,30.02,North,0,0.0,0.0,94,0.00,,,0.03,WUHU216HW,2013-01-13 03:08:00,
2013-01-12 22:13:00,41.2,39.6,30.02,North,0,0.0,0.0,94,0.00,,,0.03,WUHU216HW,2013-01-13 03:13:00,
2013-01-12 22:18:00,41.0,39.4,30.02,North,0,0.0,0.4,94,0.00,,,0.03,WUHU216HW,2013-01-13 03:18:00,
2013-01-12 22:23:00,41.2,39.3,30.02,North,0,0.0,0.4,93,0.00,,,0.03,WUHU216HW,2013-01-13 03:23:00,
2013-01-12 22:28:00,41.2,39.6,30.03,NNE,23,0.4,0.4,94,0.00,,,0.03,WUHU216HW,2013-01-13 03:28:00,
2013-01-12 22:33:00,41.2,39.6,30.03,NNE,23,0.2,0.4,94,0.00,,,0.03,WUHU216HW,2013-01-13 03:33:00,
2013-01-12 22:38:00,41.2,39.6,30.03,NNE,23,0.0,0.4,94,0.00,,,0.03,WUHU216HW,2013-01-13 03:38:00,
2013-01-12 22:43:00,41.0,39.4,30.03,NNE,23,0.0,0.2,94,0.00,,,0.03,WUHU216HW,2013-01-13 03:43:00,
2013-01-12 22:48:00,41.0,39.4,30.03,NNE,23,0.0,0.0,94,0.00,,,0.03,WUHU216HW,2013-01-13 03:48:00,
2013-01-12 22:53:00,41.0,39.4,30.03,NNE,23,0.0,0.4,94,0.00,,,0.03,WUHU216HW,2013-01-13 03:53:00,
2013-01-12 22:58:00,41.0,39.4,30.03,NNE,23,0.0,0.4,94,0.00,,,0.03,WUHU216HW,2013-01-13 03:58:00,
2013-01-12 23:03:00,41.0,39.4,30.02,NNE,23,0.0,0.4,94,0.00,,,0.03,WUHU216HW,2013-01-13 04:03:00,
2013-01-12 23:08:00,41.0,39.4,30.02,NNE,23,0.0,0.4,94,0.00,,,0.03,WUHU216HW,2013-01-13 04:08:00,
2013-01-12 23:13:00,41.0,39.4,30.03,NNE,23,0.0,0.0,94,0.00,,,0.03,WUHU216HW,2013-01-13 04:13:00,
2013-01-12 23:18:00,40.9,39.2,30.03,NNE,23,0.0,0.0,94,0.00,,,0.03,WUHU216HW,2013-01-13 04:18:00,
2013-01-12 23:23:00,40.9,39.2,30.03,NNE,23,0.0,0.0,94,0.00,,,0.03,WUHU216HW,2013-01-13 04:23:00,
2013-01-12 23:28:00,40.9,39.2,30.03,NNE,23,0.0,0.0,94,0.00,,,0.03,WUHU216HW,2013-01-13 04:28:00,
2013-01-12 23:33:00,40.7,39.1,30.03,NNE,23,0.0,0.0,94,0.00,,,0.03,WUHU216HW,2013-01-13 04:33:00,
2013-01-12 23:38:00,40.7,39.1,30.03,NNE,23,0.0,0.0,94,0.00,,,0.03,WUHU216HW,2013-01-13 04:38:00,
2013-01-12 23:43:00,40.7,39.1,30.03,NNE,23,0.0,0.0,94,0.00,,,0.03,WUHU216HW,2013-01-13 04:43:00,
2013-01-12 23:48:00,40.7,39.1,30.03,NNE,23,0.0,0.0,94,0.00,,,0.03,WUHU216HW,2013-01-13 04:48:00,
2013-01-12 23:53:00,40.9,39.2,30.04,NNE,23,0.0,0.0,94,0.00,,,0.03,WUHU216HW,2013-01-13 04:53:00,
2013-01-12 23:58:00,40.9,39.2,30.04,NNE,23,0.0,0.4,94,0.00,,,0.03,WUHU216HW,2013-01-13 04:58:00,